ANIK F3                 
1 31102U 07009A   19266.04354936 -.00000010  00000-0  00000+0 0  9992
2 31102   0.0183 162.1167 0001723  28.8166  67.6419  1.00272084 45678
BREEZE-M DEB [TANK]     
1 31103U 07009B   19265.41094992  .00000014  00000-0  48388-4 0  9995
2 31103  49.4595  38.4744 5501709  68.4231 340.1581  4.76800610212196
BREEZE-M R/B            
1 31104U 07009C   19265.11717064  .00000117  00000-0  00000+0 0  9993
2 31104  11.6237 267.2942 5672801 157.0992 204.0537  1.96448547 89371